Regional Weather Roundup
Issued by NWS Portland, ME

Home | Current Version | Previous Version | Text Only | Print | Product List | Glossary On
Versions: 1 2 3 4 5 6 7 8 9 10 11 12 13 14 15 16 17 18 19 20 21 22 23 24 25 26 27 28 29 30 31 32 33 34 35 36 37 38 39 40 41 42 43 44 45 46 47 48 49 50
000
ASUS41 KGYX 051210
RWRGYX
WEATHER ROUNDUP FOR MAINE AND NEW HAMPSHIRE
NATIONAL WEATHER SERVICE GRAY ME
800 AM EDT TUE MAY 05 2015

MEZ002-005-006-010-012-015-018-020-021-024-026-027-029-051300-
MAINE

CITY           SKY/WX    TMP DP  RH WIND       PRES   REMARKS
PORTLAND       MOSUNNY   69  53  56 NW13      30.14R
6HR MIN TEMP:  63; 6HR MAX TEMP:  72;

SANFORD        MOSUNNY   68  46  45 NW12      30.16R
BAR HARBOR     PTSUNNY   64  52  63 NW14G23   30.10R
WISCASSET      PTSUNNY   67  50  54 VRB6      30.14R
6HR MIN TEMP:  55; 6HR MAX TEMP:  67;

ROCKLAND       PTSUNNY   66  50  55 W8G17     30.10R
FRYEBURG       PTSUNNY   63  46  54 N10G17    30.17R
6HR MIN TEMP:  62; 6HR MAX TEMP:  70;

AUGUSTA        MOSUNNY   64  47  53 NW15G21   30.15R
6HR MIN TEMP:  60; 6HR MAX TEMP:  67;

WATERVILLE     MOSUNNY   61  37  41 NW14G24   30.13R
BANGOR         PTSUNNY   62  42  47 W14G23    30.11R
6HR MIN TEMP:  58; 6HR MAX TEMP:  65; 6HR PCP: TRACE;

GREENVILLE       N/A     51  40  65 NW9G23    30.12R
6HR MIN TEMP:  49; 6HR MAX TEMP:  61;

MILLINOCKET    MOSUNNY   57  42  57 NW17G32   30.11R
6HR MIN TEMP:  57; 6HR MAX TEMP:  67; 6HR PCP: TRACE;

HOULTON        MOSUNNY   56  39  53 NW16G32   30.06R
6HR MIN TEMP:  55; 6HR MAX TEMP:  66;

PRESQUE ISLE   SUNNY     54  36  50 NW17      30.07R
6HR MIN TEMP:  52; 6HR MAX TEMP:  66; 6HR PCP:  0.04;

FRENCHVILLE    CLOUDY    46  34  62 NW17G28   30.07R
6HR MIN TEMP:  46; 6HR MAX TEMP:  55; 6HR PCP:  0.01;

CARIBOU        MOSUNNY   51  37  58 NW16G30   30.06R
6HR MIN TEMP:  50; 6HR MAX TEMP:  58; 6HR PCP:  0.02;

$$

NHZ002-005-008-009-011-012-014-051300-
NEW HAMPSHIRE

CITY           SKY/WX    TMP DP  RH WIND       PRES   REMARKS
PORTSMOUTH     PTSUNNY   70  50  49 NW17      30.13R
ROCHESTER      MOSUNNY   68  50  52 NW15      30.16R
6HR MIN TEMP:  64; 6HR MAX TEMP:  69;

NASHUA         PTSUNNY   69  53  56 N10       30.17R
MANCHESTER     PTSUNNY   70  49  47 NW10      30.16R
6HR MIN TEMP:  65; 6HR MAX TEMP:  70;

CONCORD        MOSUNNY   68  49  50 N13       30.17R
6HR MIN TEMP:  66; 6HR MAX TEMP:  70;

LACONIA        SUNNY     64  46  52 NW8       30.16R
PLYMOUTH       FAIR      63  52  67 NW12G18   30.18R
BERLIN         MOSUNNY   55  42  61 NW8       30.21R
6HR MIN TEMP:  53; 6HR MAX TEMP:  60; 6HR PCP: TRACE;

WHITEFIELD     MOSUNNY   56  41  57 N12G21    30.22R
6HR MIN TEMP:  55; 6HR MAX TEMP:  61;

JAFFREY        CLOUDY    66  51  58 VRB7      30.20R
6HR MIN TEMP:  60; 6HR MAX TEMP:  66;

KEENE          PTSUNNY   66  48  52 NW7       30.20R
LEBANON        MOSUNNY   66  47  50 VRB6      30.20R
6HR MIN TEMP:  61; 6HR MAX TEMP:  72;

MT WASHINGTON  FOG       32  32 100 NW55        N/A  VSB 0   WCI  14
6HR MIN TEMP:  31; 6HR MAX TEMP:  41; 6HR PCP:  0.17;

$$

VTZ005-007-008-051300-
VERMONT

CITY           SKY/WX    TMP DP  RH WIND       PRES   REMARKS
ST JOHNSBURY     N/A     56  43  61 MISG      30.22R
MONTPELIER     MOSUNNY   55  47  74 NW7       30.27R
BURLINGTON     PTSUNNY   57  45  64 N8        30.26R
$$

MAZ007-012-024-CTZ003-RIZ002-NYZ038-NYZ072-051300-
SOUTHERN NEW ENGLAND AND NY

CITY           SKY/WX    TMP DP  RH WIND       PRES   REMARKS
BOSTON         CLOUDY    68  48  48 W8        30.16R
WORCESTER      LGT RAIN  59  53  80 W9        30.20R
NANTUCKET      MOSUNNY   55  47  74 SW15      30.20R
PROVIDENCE     PTSUNNY   65  47  52 W5        30.18R
HARTFORD       CLOUDY    66  49  54 CALM      30.18R
ALBANY         PTSUNNY   66  53  63 NW10      30.22R
NEW YORK CITY  MOSUNNY   70  49  47 CALM      30.19R
$$

ANZ081-ANZ082-ANZ150-NHZ014-MEZ023>029-051300-
COASTAL MARINE OBSERVATIONS

STATION/POSITION TIME  TEMP    WIND        PRES    WAVE
                       AIR SEA DIR/SP/G            HT/PER
                 (UTC) (F)     (DEG/KT/KT) (MB)    (FT/S)
$$

.............KEY..............
   WCI - WIND CHILL
   TC  - TEMPERATURE IN CELSIUS
   VSB - VISIBILITY IN MILES
   HX  - HEAT INDEX
   FAIR- INDICATES FEW OR NO CLOUDS BELOW 12,000 FT, WITH NO
         SIGNIFICANT WEATHER AND/OR OBSTRUCTIONS TO VISIBILITY.




USA.gov is the U.S. government's official web portal to all federal, state and local government web resources and services.